Location: DARK SKY Beskydy - Park tmavé oblohy, www.darkskybeskydy.cz
(49.4926°N, 18.5016°E)
Time: 08:46:41
(UTC+02:00)

Transit 4A - Pass Details

Date: 28 February 2024
Orbit: 871 x 971 km, 66.8° (Epoch: 24 April)

Event Time Altitude Azimuth Distance (km) Brightness Sun altitude
Exits shadow 05:27:30 - 315° (NW) 3,257 10.3 -11.3°
Reaches altitude 10° 05:30:17 10° 333° (NNW) 2,576 10.0 -10.8°
Maximum altitude 05:33:39 15° 8° (N) 2,207 10.0 -10.3°
Drops below altitude 10° 05:36:59 10° 43° (NE) 2,545 10.8 -9.7°
Sets 05:40:39 0° 66° (ENE) 3,472 12.2 -9.1°
